FENGYUN 1C DEB, 29946

Orbit data source: Space-Track

FENGYUN 1C DEB, 29946 is space debris in SSO originally from a launch on Mon, 10 May 1999 UTC launched from the Taiyaun Space Center, China (TSC). Fengyun 1C debris stems from the Chinese weather satellite Fengyun-1C, which was intentionally destroyed by a Chinese anti-satellite missile in 2007. This event dramatically increased the amount of space debris, with thousands of trackable fragments posing hazards to satellites and human spaceflight. The Fengyun 1C debris cloud has become a focal point in discussions about space sustainability and the need for international regulations to prevent the creation of new debris.

Loading next visibility...
Identifier
29946, 1999-025JU
Orbit
SSO
Country
Flag of CNCN / PRC
Related business
Manufacturer
Unknown
Mission
Spacecraft
Bus & Motor
Unknown
Mass
Unknown
Launch date (UTC)
1999-05-10 (27 years ago)
Launch vehicle
Unknown
Launch site
Taiyaun Space Center, China (TSC)
Object type
Payload
Rocket body
Debris
Shape & HBR
Unknown shape, 0.2 m
Radar Cross Section
Small (<0.1 m²)

Expand to show TLE details & history
Last TLE update: 20 hours ago

TLE from 20 hours ago
0 FENGYUN 1C DEB
1 29946U 99025JU  26106.58682788  .00000294  00000-0  19133-3 0  9997
2 29946  98.7904 100.5656 0080516 351.7305 134.0963 14.08373482988041
Epoch: 2026-04-16T14:05Z
TLE epoch observation values (Epoch: 2026-04-16T14:05:01.928Z)
Latitude
52.71433°
Longitude
-123.76882°
Altitude
914.316 km
Speed
7.379 km/s
True Right ascension
19h 28m 53s
True Declination
52° 33' 07"
Sunlit
Object was in daylight at epoch
Visualization orbit readout
Latitude
Unknown
Longitude
Unknown
Altitude
Unknown
Speed
Unknown
Apparent Right ascension
Unknown
Apparent Declination
Unknown
Sunlit
N/A
Visualization observer readout
Local Sidereal Time
17:05:43
Azimuth
Unknown
Elevation
Unknown
Doppler factor
Unknown
Orbital elements
Apogee altitude
920.416 km
Perigee altitude
803.825 km
Semi-major axis
7,240.258 km
Eccentricity
0.00805
Inclination
98.7904°
RAAN
100.5656°
Arg. of periapsis
351.7305°
True anomaly
134.75429°
Mean anomaly
134.0963°
Eccentric anomaly
134.42576°
Mean motion
3.523 °/min
Orbital period
102.19 mins
BSTAR
0.00019133
Loading maneuver chart data...
Computing Atmospheric mass density...

Documentation

Showing up to 5 results
|